Date String (YYYY-MM-DD hh:mm:ss) UTC,Instrument flags,absolute air pressure of the measurement (hPa),sample flow rate (lpm),inlet stack bypass flow (lpm),air temperature of the measurement (°C),ambient temperature measured by the external sensor (°C),aerosol sample conditioner tube jacket temperature (°C),OPC LED temperature (°C),internal box temperature (°C),relative humidity of the measurement (%),span deviation,mass concentration of particles derived from Lorenz-Mie calculation of OPC scattering (μg/m³),mass concentration of particles derived from Lorenz-Mie calculation of OPC scattering (μg/m³),mass concentration of particles derived from Lorenz-Mie calculation of OPC scattering (μg/m³)
DateTimeUTC,F1_M11,P_M11,Q1_M11,Q2_M11,T1_M11,T2_M11,T3_M11,T4_M11,T5_M11,U1_M11,ZSPAN_M11,X2_M11,X0_M11,X1_M11
2024-02-22 14:00:00,SystemResetWarning,0829.7,5.01,000.00,020.3,019.8,000.0,028.7,022.2,24.4,0000.0,0003.85,0009.18,0003.63
2024-02-22 14:01:00,SystemResetWarning,0829.7,5.00,000.00,020.3,019.8,000.0,028.7,022.2,24.3,0000.0,0003.89,0009.19,0003.65
2024-02-22 14:02:00,SystemResetWarning,0829.7,5.00,000.00,020.3,019.8,000.0,028.7,022.2,24.3,0000.0,0003.95,0009.57,0003.69
2024-02-22 14:03:00,SystemResetWarning,0829.7,5.00,000.00,020.3,019.8,000.0,028.7,022.2,24.3,0000.0,0004.00,0009.63,0003.71
2024-02-22 14:04:00,SystemResetWarning,0829.7,5.00,000.00,020.3,019.8,000.0,028.7,022.2,24.3,0000.0,0004.00,0008.90,0003.74
2024-02-22 14:05:00,SystemResetWarning,0829.7,5.00,000.00,020.3,019.8,000.0,028.7,022.2,24.4,0000.0,0003.99,0008.26,0003.75
2024-02-22 14:06:00,SystemResetWarning,0829.7,5.00,000.00,020.3,019.8,000.0,028.7,022.2,24.4,0000.0,0004.01,0008.30,0003.76
2024-02-22 14:07:00,SystemResetWarning,0829.8,5.00,000.00,020.3,019.8,000.0,028.7,022.1,24.5,0000.0,0004.02,0008.73,0003.77
2024-02-22 14:08:00,SystemResetWarning,0829.8,4.99,000.00,020.3,019.8,000.0,028.7,022.1,24.4,0000.0,0004.04,0008.98,0003.77
2024-02-22 14:09:00,SystemResetWarning,0829.8,5.00,000.00,020.3,019.8,000.0,028.7,022.2,24.4,0000.0,0004.08,0008.85,0003.79
2024-02-22 14:10:00,SystemResetWarning,0829.8,5.00,000.00,020.3,019.8,000.0,028.8,022.2,24.4,0000.0,0004.06,0008.56,0003.78
2024-02-22 14:11:00,SystemResetWarning,0829.8,5.00,000.00,020.3,019.8,000.0,028.8,022.2,24.4,0000.0,0004.04,0008.50,0003.76
2024-02-22 14:12:00,SystemResetWarning,0829.8,5.00,000.00,020.3,019.8,000.0,028.8,022.2,24.4,0000.0,0004.01,0008.45,0003.75
2024-02-22 14:13:00,SystemResetWarning,0829.9,5.00,000.00,020.3,019.8,000.0,028.8,022.2,24.4,0000.0,0003.98,0008.18,0003.73
2024-02-22 14:14:00,SystemResetWarning,0829.9,5.00,000.00,020.3,019.8,000.0,028.8,022.2,24.4,0000.0,0003.95,0007.41,0003.72
2024-02-22 14:15:00,SystemResetWarning,0829.9,5.00,000.00,020.3,019.8,000.0,028.8,022.2,24.4,0000.0,0003.95,0007.22,0003.71
2024-02-22 14:16:00,SystemResetWarning,0829.9,5.00,000.00,020.3,019.8,000.0,028.8,022.2,24.4,0000.0,0003.98,0007.40,0003.69
2024-02-22 14:17:00,SystemResetWarning,0830.0,5.02,000.00,020.3,019.8,000.0,028.8,022.2,24.4,0000.0,0003.96,0007.37,0003.68
2024-02-22 14:18:00,SystemResetWarning,0830.0,5.00,000.00,020.4,019.8,000.0,028.8,022.2,24.3,0000.0,0003.96,0006.64,0003.68
2024-02-22 14:19:00,SystemResetWarning,0830.0,4.99,000.00,020.4,019.8,000.0,028.8,022.2,24.4,0000.0,0003.96,0005.77,0003.68
2024-02-22 14:20:00,SystemResetWarning,0830.0,5.00,000.00,020.4,019.8,000.0,028.8,022.2,24.4,0000.0,0003.95,0006.09,0003.68
2024-02-22 14:21:00,SystemResetWarning,0830.0,5.02,000.00,020.4,019.8,000.0,028.8,022.2,24.4,0000.0,0003.97,0006.50,0003.69
2024-02-22 14:22:00,SystemResetWarning,0830.0,5.01,000.00,020.4,019.8,000.0,028.8,022.2,24.4,0000.0,0003.97,0006.73,0003.71
2024-02-22 14:23:00,SystemResetWarning,0830.0,4.99,000.00,020.4,019.8,000.0,028.8,022.2,24.4,0000.0,0004.01,0007.40,0003.73
2024-02-22 14:24:00,SystemResetWarning,0830.0,4.99,000.00,020.4,019.8,000.0,028.8,022.2,24.4,0000.0,0004.02,0007.74,0003.74
2024-02-22 14:25:00,SystemResetWarning,0830.0,5.00,000.00,020.4,019.8,000.0,028.8,022.2,24.5,0000.0,0004.04,0007.90,0003.76
2024-02-22 14:26:00,SystemResetWarning,0830.1,5.01,000.00,020.4,019.8,000.0,028.8,022.2,24.5,0000.0,0004.06,0007.86,0003.78
2024-02-22 14:27:00,SystemResetWarning,0830.1,5.01,000.00,020.4,019.8,000.0,028.8,022.2,24.4,0000.0,0004.04,0007.82,0003.79
2024-02-22 14:28:00,SystemResetWarning,0830.1,4.99,000.00,020.4,019.8,000.0,028.8,022.2,24.4,0000.0,0004.04,0007.89,0003.79
2024-02-22 14:29:00,SystemResetWarning,0830.2,4.99,000.00,020.4,019.8,000.0,028.8,022.2,24.3,0000.0,0004.03,0008.09,0003.80
2024-02-22 14:30:00,SystemResetWarning,0830.1,4.99,000.00,020.4,019.8,000.0,028.8,022.2,24.3,0000.0,0004.03,0008.49,0003.80
2024-02-22 14:31:00,SystemResetWarning,0830.1,5.00,000.00,020.4,019.8,000.0,028.8,022.2,24.4,0000.0,0004.00,0008.54,0003.78
2024-02-22 14:32:00,SystemResetWarning,0830.1,5.00,000.00,020.4,019.8,000.0,028.8,022.2,24.3,0000.0,0003.97,0008.23,0003.76
2024-02-22 14:33:00,SystemResetWarning,0830.1,5.00,000.00,020.4,019.8,000.0,028.8,022.2,24.3,0000.0,0003.94,0008.17,0003.72
2024-02-22 14:34:00,SystemResetWarning,0830.1,5.00,000.00,020.4,019.8,000.0,028.8,022.2,24.3,0000.0,0003.90,0007.78,0003.66
2024-02-22 14:35:00,SystemResetWarning,0830.3,5.01,000.00,020.4,019.8,000.0,028.8,022.2,24.3,0000.0,0003.84,0007.43,0003.60
2024-02-22 14:36:00,SystemResetWarning,0830.2,5.00,000.00,020.4,019.8,000.0,028.8,022.2,24.4,0000.0,0003.77,0007.04,0003.54
2024-02-22 14:37:00,SystemResetWarning,0830.3,5.00,000.00,020.4,019.9,000.0,028.8,022.2,24.5,0000.0,0003.75,0007.11,0003.51
2024-02-22 14:38:00,SystemResetWarning,0830.2,5.00,000.00,020.4,019.8,000.0,028.8,022.2,24.5,0000.0,0003.74,0007.15,0003.49
2024-02-22 14:39:00,SystemResetWarning,0830.2,5.00,000.00,020.4,019.8,000.0,028.8,022.2,24.5,0000.0,0003.77,0007.10,0003.50
2024-02-22 14:40:00,SystemResetWarning,0830.2,5.00,000.00,020.4,019.8,000.0,028.8,022.2,24.4,0000.0,0003.76,0007.18,0003.48
2024-02-22 14:41:00,SystemResetWarning,0830.2,5.00,000.00,020.4,019.8,000.0,028.8,022.2,24.4,0000.0,0003.78,0006.50,0003.47
2024-02-22 14:42:00,SystemResetWarning,0830.3,5.00,000.00,020.4,019.8,000.0,028.8,022.2,24.4,0000.0,0003.80,0006.42,0003.47
2024-02-22 14:43:00,SystemResetWarning,0830.3,5.00,000.00,020.4,019.8,000.0,028.8,022.2,24.3,0000.0,0003.81,0006.33,0003.48
2024-02-22 14:44:00,SystemResetWarning,0830.3,5.00,000.00,020.4,019.8,000.0,028.8,022.2,24.3,0000.0,0003.85,0007.12,0003.50
2024-02-22 14:45:00,SystemResetWarning,0830.3,5.00,000.00,020.4,019.8,000.0,028.8,022.2,24.3,0000.0,0003.86,0007.07,0003.51
2024-02-22 14:46:00,SystemResetWarning,0830.3,5.00,000.00,020.4,019.8,000.0,028.8,022.2,24.4,0000.0,0003.87,0007.13,0003.54
2024-02-22 14:47:00,SystemResetWarning,0830.3,5.00,000.00,020.4,019.8,000.0,028.8,022.2,24.4,0000.0,0003.89,0007.28,0003.55
2024-02-22 14:48:00,SystemResetWarning,0830.3,4.99,000.00,020.4,019.8,000.0,028.8,022.2,24.3,0000.0,0003.88,0007.46,0003.54
2024-02-22 14:49:00,SystemResetWarning,0830.3,4.99,000.00,020.4,019.8,000.0,028.8,022.2,24.3,0000.0,0003.83,0007.78,0003.51
2024-02-22 14:50:00,SystemResetWarning,0830.3,4.99,000.00,020.4,019.8,000.0,028.8,022.2,24.3,0000.0,0003.77,0007.71,0003.47
2024-02-22 14:51:00,SystemResetWarning,0830.3,5.00,000.00,020.4,019.8,000.0,028.8,022.2,24.3,0000.0,0003.73,0008.23,0003.45
2024-02-22 14:52:00,SystemResetWarning,0830.3,5.00,000.00,020.4,019.8,000.0,028.8,022.2,24.4,0000.0,0003.70,0008.12,0003.44
2024-02-22 14:53:00,SystemResetWarning,0830.3,5.02,000.00,020.4,019.8,000.0,028.9,022.2,24.4,0000.0,0003.67,0008.29,0003.42
2024-02-22 14:54:00,SystemResetWarning,0830.4,5.00,000.00,020.4,019.8,000.0,028.9,022.2,24.4,0000.0,0003.65,0008.86,0003.40
2024-02-22 14:55:00,SystemResetWarning,0830.4,5.00,000.00,020.4,019.8,000.0,028.8,022.2,24.5,0000.0,0003.60,0008.42,0003.38
2024-02-22 14:56:00,SystemResetWarning,0830.4,4.99,000.00,020.4,019.8,000.0,028.8,022.2,24.5,0000.0,0003.57,0008.58,0003.37
2024-02-22 14:57:00,SystemResetWarning,0830.4,4.99,000.00,020.4,019.9,000.0,028.8,022.3,24.5,0000.0,0003.58,0008.58,0003.37
2024-02-22 14:58:00,SystemResetWarning,0830.6,5.00,000.00,020.4,019.9,000.0,028.8,022.3,24.5,0000.0,0003.61,0008.59,0003.38
2024-02-22 14:59:00,SystemResetWarning,0830.4,5.01,000.00,020.4,019.9,000.0,028.9,022.3,24.5,0000.0,0003.65,0008.65,0003.41
